Weather History for Nashua, NH

Change the Weather History Date:

Thursday, October 3, 2013

  Actual Average Record
Temperature  
Mean Temperature 62 °F -  
Max Temperature 77 °F 66 °F 88 °F (1950)
Min Temperature 47 °F 43 °F 28 °F (1965)
Degree Days  
Heating Degree Days 3    
Growing Degree Days 12 (Base 50)    
Moisture  
Dew Point 49 °F    
Average Humidity 67    
Maximum Humidity 97    
Minimum Humidity 28    
Precipitation  
Precipitation 0.00 in - - ()
Sea Level Pressure  
Sea Level Pressure 30.77 in    
Wind  
Wind Speed 2 mph (WNW)    
Max Wind Speed 9 mph    
Max Gust Speed -    
Visibility 10 miles    
Events      
Averages and records for this station are not official NWS values.
T = Trace of Precipitation, MM = Missing Value Source: NWS Daily Summary

Daily Weather History Graph

Daily Weather History Graph

Search for Another Location

Airport:

Trip Planner

Search our weather history database for the weather conditions in past years. The results will help you decide how hot, cold, wet, or windy it might be!

Date:

Astronomy

Oct. 03, 2013 Rise Set
Actual Time 6:45 AM EDT 6:23 PM EDT
Civil Twilight 6:17 AM EDT 6:51 PM EDT
Nautical Twilight 5:44 AM EDT 7:24 PM EDT
Astronomical Twilight 5:11 AM EDT 7:57 PM EDT
Moon 5:14 AM EDT (10/3) 5:30 PM EDT (10/3)
Length of Visible Light 12h 34m
Length of Day
11h 37m
Waning Crescent, 2% of the Moon is Illuminated
Oct 3
Waning Crescent
Oct 4
New
Oct 11
First Quarter
Oct 18
Full
Oct 26
Last Quarter

Hourly Weather History & Observations

Time (EDT) Temp. Dew Point Humidity Pressure Visibility Wind Dir Wind Speed Gust Speed Precip Events Conditions
12:51 AM 61.0 °F 54.0 °F 78% 30.69 in 10.0 mi WNW 4.6 mph - N/A   Clear
1:51 AM 59.0 °F 52.0 °F 78% 30.71 in 10.0 mi West 3.5 mph - N/A   Clear
2:51 AM 54.9 °F 52.0 °F 90% 30.71 in 10.0 mi Calm Calm - N/A   Clear
3:51 AM 52.9 °F 50.9 °F 93% 30.74 in 10.0 mi Calm Calm - N/A   Clear
4:51 AM 50.9 °F 50.0 °F 97% 30.75 in 10.0 mi Calm Calm - N/A   Clear
5:51 AM 48.9 °F 46.9 °F 93% 30.77 in 10.0 mi Calm Calm - N/A   Clear
6:51 AM 47.8 °F 46.9 °F 97% 30.79 in 10.0 mi Calm Calm - N/A   Clear
7:51 AM 50.9 °F 48.9 °F 93% 30.82 in 10.0 mi Calm Calm - N/A   Clear
8:51 AM 59.0 °F 50.9 °F 74% 30.83 in 10.0 mi Calm Calm - N/A   Clear
9:51 AM 68.0 °F 48.9 °F 50% 30.83 in 10.0 mi NW 9.2 mph - N/A   Clear
10:51 AM 70.0 °F 48.9 °F 47% 30.82 in 10.0 mi Calm Calm - N/A   Clear
11:51 AM 72.0 °F 50.0 °F 46% 30.81 in 10.0 mi Calm Calm - N/A   Clear
12:51 PM 73.9 °F 43.9 °F 34% 30.79 in 10.0 mi Calm Calm - N/A   Clear
1:51 PM 77.0 °F 43.0 °F 30% 30.76 in 10.0 mi South 4.6 mph - N/A   Clear
2:51 PM 77.0 °F 43.0 °F 30% 30.75 in 10.0 mi WNW 6.9 mph - N/A   Clear
3:51 PM 77.0 °F 41.9 °F 28% 30.74 in 10.0 mi WSW 3.5 mph - N/A   Clear
4:51 PM 75.9 °F 43.9 °F 32% 30.74 in 10.0 mi Variable 3.5 mph - N/A   Clear
5:51 PM 70.0 °F 48.9 °F 47% 30.75 in 10.0 mi Calm Calm - N/A   Clear
6:51 PM 63.9 °F 52.9 °F 67% 30.77 in 10.0 mi NW 5.8 mph - N/A   Clear
7:51 PM 61.0 °F 52.0 °F 72% 30.79 in 10.0 mi Calm Calm - N/A   Clear
8:51 PM 59.0 °F 52.0 °F 78% 30.79 in 10.0 mi Calm Calm - N/A   Clear
9:51 PM 56.8 °F 52.0 °F 84% 30.80 in 10.0 mi Calm Calm - N/A   Clear
10:51 PM 55.9 °F 52.0 °F 87% 30.81 in 10.0 mi NW 3.5 mph - N/A   Clear
11:51 PM 55.9 °F 52.0 °F 87% 30.80 in 10.0 mi Calm Calm - N/A   Clear